Pasco, WA
on Monday, December 24, 2012

Monday
Previous Day Next Day
Daily Summary
 ActualAverageRecord
Temperature
Mean Temperature °F 32°F  
Max Temperature 48°F 39°F 53°F (1992)
Min Temperature 28°F 25°F 2°F (1990)
Degree Days
Heating Degree Days 27 33  
Month to date heating degree days 577 759  
Since 1 July heating degree days 1674 1988  
Cooling Degree Days 0 0  
Month to date cooling degree days 0 0  
Year to date cooling degree days 788 710  
Moisture
Dew Point 32°F   
Average Humidity 77    
Maximum Humidity 100    
Minimum Humidity 53    
Precipitation
Precipitation 0.02 in in 0.30 in (1968)
Month to date precipitation 0.96  
Year to date precipitation 9.52  
Snow
Snow 0.00 in in in ()
Snow Depth 0.00 in   
Wind
Wind Speed 9 mph   
Max Wind Speed 17 mph   
Max Gust Speed 22 mph   
Visibility 10 miles   
Events Rain   

Key: T is trace of precipitation, MM is missing value
Source: NWS Daily Summary
Time(PST)TemperatureDew PointHumidity Pressure Visibility Wind DirectionWind SpeedGust SpeedPrecipitationEvents Conditions
12:53 AM 37.0°F 34.0°F 89% 29.81 in 10.0 miles WSW 12.7 mph - 0.01 in Rain Light Rain
1:53 AM 37.0°F 34.0°F 89% 29.83 in 10.0 miles West 6.9 mph - 0.00 in Rain Light Rain
2:53 AM 37.0°F 34.0°F 89% 29.86 in 10.0 miles WSW 8.1 mph - 0.00 in   Overcast
3:53 AM 39.0°F 33.1°F 79% 29.87 in 10.0 miles WSW 13.8 mph - N/A   Overcast
4:53 AM 39.0°F 33.1°F 79% 29.89 in 10.0 miles WSW 13.8 mph - 0.01 in   Overcast
5:53 AM 37.9°F 32.0°F 79% 29.92 in 10.0 miles WSW 11.5 mph - N/A   Mostly Cloudy
6:53 AM 37.0°F 30.9°F 79% 29.95 in 10.0 miles WSW 10.4 mph - N/A   Clear
7:53 AM 36.0°F 30.0°F 79% 29.98 in 10.0 miles SW 10.4 mph - N/A   Mostly Cloudy
8:53 AM 35.1°F 30.9°F 85% 30.02 in 10.0 miles SSW 3.5 mph - N/A   Partly Cloudy
9:53 AM 42.1°F 33.1°F 70% 30.06 in 10.0 miles WSW 8.1 mph - N/A   Clear
10:53 AM 44.1°F 34.0°F 68% 30.08 in 10.0 miles WSW 8.1 mph - N/A   Clear
11:53 AM 46.0°F 33.1°F 61% 30.08 in 10.0 miles WSW 11.5 mph - N/A   Clear
12:53 PM 48.0°F 33.1°F 56% 30.09 in 10.0 miles SW 13.8 mph - N/A   Clear
1:53 PM 48.0°F 33.1°F 56% 30.12 in 10.0 miles WSW 15.0 mph - N/A   Clear
2:53 PM 46.0°F 30.9°F 56% 30.14 in 10.0 miles West 10.4 mph - N/A   Clear
3:53 PM 43.0°F 30.9°F 62% 30.15 in 10.0 miles WSW 8.1 mph - N/A   Clear
4:53 PM 37.9°F 33.1°F 83% 30.16 in 10.0 miles SSW 6.9 mph - N/A   Clear
5:53 PM 37.9°F 32.0°F 79% 30.18 in 10.0 miles SW 10.4 mph - N/A   Clear
6:53 PM 37.0°F 30.9°F 79% 30.18 in 10.0 miles South 9.2 mph - N/A   Clear
7:53 PM 33.1°F 28.9°F 85% 30.18 in 10.0 miles East 3.5 mph - N/A   Clear
8:53 PM 33.1°F 30.0°F 89% 30.18 in 10.0 miles ENE 3.5 mph - N/A   Clear
9:53 PM 30.0°F 28.0°F 92% 30.19 in 10.0 miles Calm Calm - N/A   Clear
10:53 PM 28.9°F 28.0°F 96% 30.18 in 10.0 miles Calm Calm - N/A   Clear
11:53 PM 30.0°F 28.0°F 92% 30.19 in 10.0 miles Calm Calm - N/A   Clear
Moon Phase
Dec. 24 Dec. 28 Jan. 04 Jan. 11 Jan. 18
Sunrise:07:38 AM (PST) Moon Rise:01:49 PM (PST)
Sunset:04:14 PM (PST) Moon Set:04:16 AM (PST)

Copyright © 2014 The Weather Underground, Inc.